Location: Croissy-Beaubourg
(48.8283°N, 2.6696°E)
Time: 22:12:14
(UTC+00:00)

Cosmos 2082 - Pass Details

Date: 24 August 2022
Orbit: 832 x 856 km, 71.0° (Epoch: 28 September)

Event Time Altitude Azimuth Distance (km) Brightness Sun altitude
Rises 03:38:50 0° 319° (NW) 3,416 6.8 -12.1°
Reaches altitude 10° 03:42:03 10° 301° (WNW) 2,480 5.9 -11.6°
Maximum altitude 03:45:41 18° 261° (W) 1,991 5.1 -11.1°
Enters shadow 03:48:04 14° 232° (SW) 2,215 5.2 -10.8°
